Terminal Aerodrome Forecast
Issued by NWS Newport/Morehead City, NC

Home | Current Version | Previous Version | Text Only | Print | Product List | Glossary On
Versions: 1 2 3 4 5 6 7 8 9 10 11 12 13 14 15 16 17 18
000
FTUS42 KMHX 271900 AAA
TAFEWN
TAF AMD
KEWN 271902Z 2719/2818 05008KT P6SM SCT035
     FM280800 VRB03KT 3/4SM BR OVC003
     FM281300 05008KT P6SM SCT030=

USA.gov is the U.S. government's official web portal to all federal, state and local government web resources and services.